EW3302 Weather Reports


Display with metric or nautical units.
time (UTC)temp
F
wind
direction
speed
MPH
gust
MPH
rain 1hr
in
rain 24hr
in
rain mn
in
humidity
%
barometer
mb
20260906025536 43 315 3.0 6.0 0.00 0.10 0.00 96 1009.8
20260906024516 43 315 3.0 6.0 0.00 0.10 0.00 96 1009.7
20260906023536 42 315 2.0 3.0 0.00 0.10 0.00 96 1009.6
20260906022516 42 315 2.0 5.0 0.00 0.10 0.00 96 1009.5
20260906021516 41 293 2.0 5.0 0.00 0.10 0.00 95 1009.5
20260906020536 42 0.0 1.0 0.00 0.10 0.00 95 1009.2
20260906015516 42 0.0 0.0 0.00 0.10 0.00 95 1009.1
20260906014516 42 0.0 1.0 0.00 0.10 0.00 95 1009.0
20260906013515 42 270 1.0 2.0 0.00 0.10 0.00 95 1008.9
20260906012535 42 270 1.0 2.0 0.00 0.10 0.00 95 1008.7
20260906011515 42 270 1.0 3.0 0.00 0.10 0.00 95 1008.6
20260906010515 42 0.0 1.0 0.00 0.10 0.00 95 1008.6
20260906005536 42 270 1.0 3.0 0.00 0.10 0.00 95 1008.4
20260906004535 43 0.0 2.0 0.00 0.10 0.00 95 1008.3
20260906003515 43 0.0 2.0 0.00 0.11 0.00 95 1008.3
20260906002515 43 293 1.0 2.0 0.00 0.11 0.00 95 1008.2
20260906001516 43 293 2.0 2.0 0.00 0.11 0.00 95 1008.1
20260906000516 44 293 1.0 2.0 0.00 0.11 0.00 95 1008.0
20260905235515 43 293 1.0 3.0 0.00 0.11 0.00 95 1008.0
20260905234515 44 270 2.0 4.0 0.00 0.11 0.00 95 1007.9
20260905233515 44 293 1.0 2.0 0.00 0.11 0.00 95 1007.7
20260905232516 44 293 1.0 2.0 0.00 0.11 0.00 95 1007.7
20260905231516 44 293 1.0 2.0 0.00 0.11 0.00 94 1007.6
20260905230515 44 0.0 1.0 0.00 0.11 0.00 94 1007.6
20260905225535 44 0.0 1.0 0.00 0.11 0.00 94 1007.5
20260905224515 44 0.0 0.0 0.00 0.12 0.00 94 1007.4
20260905223535 45 0.0 0.0 0.00 0.12 0.00 94 1007.2
20260905222516 45 0.0 0.0 0.00 0.12 0.00 94 1007.1
20260905221516 45 0.0 0.0 0.00 0.12 0.00 94 1006.9
20260905220516 45 293 1.0 2.0 0.00 0.12 0.00 94 1006.7
20260905215537 46 0.0 1.0 0.00 0.12 0.12 94 1006.5
20260905214537 46 0.0 0.0 0.00 0.12 0.12 93 1006.4
20260905213517 46 293 1.0 1.0 0.00 0.12 0.12 94 1006.3
20260905212517 47 293 1.0 2.0 0.00 0.12 0.12 94 1006.2
20260905211517 47 293 1.0 2.0 0.00 0.12 0.12 93 1006.1
20260905210537 47 293 2.0 3.0 0.00 0.12 0.12 93 1005.9
20260905204517 48 315 1.0 3.0 0.00 0.12 0.12 93 1005.6
20260905203517 48 315 1.0 2.0 0.00 0.12 0.12 93 1005.3
20260905202517 48 0.0 1.0 0.00 0.12 0.12 93 1005.1
20260905201517 49 315 1.0 2.0 0.00 0.12 0.12 92 1005.2
20260905200517 49 315 1.0 2.0 0.00 0.12 0.12 92 1005.0
20260905195537 50 315 1.0 2.0 0.00 0.13 0.12 92 1005.0
20260905194518 50 0.0 1.0 0.00 0.13 0.12 91 1004.9
20260905193517 51 315 1.0 1.0 0.00 0.13 0.12 91 1004.7
20260905192517 51 293 1.0 2.0 0.00 0.13 0.12 90 1004.8
20260905191517 52 293 1.0 2.0 0.00 0.13 0.12 90 1004.7
20260905190517 52 270 1.0 2.0 0.00 0.13 0.12 90 1004.6
20260905185517 53 0.0 1.0 0.01 0.13 0.12 89 1004.5
20260905184537 54 0.0 1.0 0.02 0.13 0.12 88 1004.5
20260905183517 54 0.0 0.0 0.02 0.13 0.12 88 1004.3
20260905182517 55 270 2.0 3.0 0.02 0.13 0.12 88 1004.2
20260905181517 55 0.0 2.0 0.02 0.13 0.12 87 1004.0
20260905180517 56 23 1.0 2.0 0.02 0.13 0.12 85 1003.8
20260905175517 56 23 2.0 5.0 0.01 0.12 0.11 83 1003.7
20260905174537 56 0 4.0 6.0 0.00 0.11 0.10 83 1003.5
20260905173517 56 338 4.0 9.0 0.00 0.12 0.10 81 1003.3
20260905172517 56 315 1.0 2.0 0.00 0.12 0.10 83 1003.0
20260905171517 57 315 1.0 2.0 0.00 0.12 0.10 81 1002.8
20260905170516 57 315 1.0 2.0 0.00 0.13 0.10 79 1002.6
20260905165516 58 315 1.0 2.0 0.00 0.13 0.10 78 1002.4
20260905164517 58 315 1.0 3.0 0.00 0.13 0.10 77 1002.3
20260905163537 58 315 1.0 2.0 0.00 0.13 0.10 77 1002.2
20260905162516 57 315 1.0 3.0 0.00 0.13 0.10 79 1002.2
20260905161537 58 338 2.0 3.0 0.00 0.13 0.10 77 1002.1
20260905160516 58 338 3.0 5.0 0.00 0.13 0.10 77 1001.9
20260905155516 58 293 3.0 8.0 0.00 0.13 0.10 74 1001.7
20260905154516 58 248 2.0 6.0 0.00 0.13 0.10 74 1001.6
20260905153517 58 270 2.0 4.0 0.00 0.13 0.10 74 1001.5
20260905152516 58 270 2.0 3.0 0.00 0.13 0.10 72 1001.4
20260905151517 59 270 2.0 5.0 0.00 0.13 0.10 76 1001.3
20260905150517 59 270 2.0 5.0 0.00 0.13 0.10 76 1001.2
20260905145516 59 270 2.0 4.0 0.00 0.13 0.10 77 1001.1
20260905144516 59 293 1.0 3.0 0.00 0.13 0.10 80 1001.2
20260905143516 59 270 1.0 2.0 0.00 0.13 0.10 80 1001.0
20260905142517 58 0.0 2.0 0.00 0.13 0.10 80 1000.9
20260905141517 58 248 2.0 4.0 0.00 0.13 0.10 79 1000.8
20260905140517 58 270 2.0 5.0 0.01 0.13 0.10 80 1000.8
20260905135517 58 270 1.0 3.0 0.02 0.13 0.10 78 1000.8
20260905134516 57 203 1.0 3.0 0.04 0.13 0.10 82 1000.7
20260905133516 57 203 1.0 3.0 0.07 0.13 0.10 85 1000.6
20260905132517 57 203 2.0 4.0 0.09 0.13 0.10 86 1000.5
20260905131536 56 248 3.0 6.0 0.09 0.13 0.10 84 1000.4
20260905130536 56 180 4.0 6.0 0.08 0.12 0.09 83 1000.2
20260905125536 57 248 1.0 3.0 0.06 0.10 0.08 83 1000.3
20260905124516 58 315 1.0 3.0 0.05 0.09 0.06 79 1000.4
20260905123517 60 315 6.0 11.0 0.02 0.06 0.03 70 1000.2
20260905122516 61 270 2.0 3.0 0.00 0.04 0.02 57 1000.0
20260905121516 62 315 1.0 2.0 0.00 0.04 0.02 57 999.8
20260905120516 62 315 2.0 4.0 0.00 0.04 0.02 60 999.7
20260905115516 62 0 3.0 6.0 0.00 0.04 0.02 60 999.6
20260905114516 63 270 3.0 6.0 0.00 0.04 0.02 58 999.6
20260905113517 65 248 4.0 8.0 0.00 0.04 0.02 57 999.7
20260905112517 63 203 3.0 7.0 0.00 0.04 0.02 64 999.5
20260905111517 61 270 2.0 6.0 0.00 0.04 0.02 64 999.6
20260905110516 62 315 3.0 5.0 0.00 0.04 0.02 60 999.4
20260905105516 62 338 1.0 5.0 0.00 0.04 0.02 61 999.3
20260905104517 62 45 2.0 7.0 0.00 0.04 0.02 59 999.2
20260905103516 62 180 2.0 4.0 0.00 0.04 0.02 65 999.1
20260905102516 61 225 3.0 6.0 0.00 0.04 0.02 61 999.0
20260905101516 61 248 3.0 8.0 0.00 0.04 0.02 64 999.0
20260905100536 60 248 3.0 5.0 0.00 0.04 0.02 63 998.9
20260905095516 60 248 3.0 7.0 0.00 0.04 0.02 64 998.8
20260905094536 59 315 3.0 5.0 0.00 0.04 0.02 65 998.8
20260905093516 59 315 4.0 7.0 0.00 0.04 0.02 64 998.9
20260905092516 59 293 4.0 9.0 0.00 0.04 0.02 64 998.8
20260905091516 59 293 3.0 5.0 0.00 0.04 0.02 73 998.8
20260905090516 58 270 3.0 5.0 0.00 0.04 0.02 75 998.7
20260905085516 58 338 2.0 5.0 0.00 0.04 0.02 76 998.6
20260905084516 58 0 3.0 6.0 0.00 0.04 0.02 78 998.5
20260905083517 57 315 1.0 4.0 0.00 0.04 0.02 81 998.5
20260905082516 56 270 1.0 2.0 0.00 0.04 0.02 82 998.4
20260905081516 55 270 3.0 5.0 0.00 0.04 0.02 83 998.4
20260905080536 54 270 2.0 4.0 0.00 0.04 0.02 86 998.3
20260905075516 54 270 2.0 5.0 0.00 0.04 0.02 90 998.3
20260905074516 53 270 2.0 4.0 0.00 0.04 0.02 90 998.2
20260905073537 52 270 2.0 4.0 0.00 0.04 0.02 93 998.1
20260905072516 52 270 2.0 5.0 0.00 0.04 0.02 93 997.9
20260905071517 51 293 2.0 4.0 0.00 0.04 0.02 94 997.9
20260905070517 51 315 2.0 4.0 0.00 0.04 0.02 94 997.9
20260905065516 51 293 2.0 5.0 0.00 0.04 0.02 95 997.8
20260905064516 51 315 2.0 6.0 0.00 0.04 0.02 95 997.8
20260905063516 50 315 3.0 5.0 0.00 0.04 0.02 95 997.6
20260905062516 50 315 2.0 3.0 0.00 0.04 0.02 95 997.6
20260905061516 50 293 3.0 6.0 0.00 0.04 0.02 95 997.5
20260905060516 50 293 2.0 5.0 0.00 0.04 0.02 96 997.5
20260905055516 50 293 1.0 3.0 0.00 0.04 0.02 96 997.3
20260905054516 50 270 1.0 3.0 0.00 0.04 0.02 96 997.2
20260905053536 49 270 2.0 4.0 0.00 0.04 0.02 96 997.2
20260905052516 49 293 1.0 3.0 0.00 0.04 0.02 96 997.1
20260905051516 49 293 1.0 3.0 0.00 0.04 0.02 96 997.1
20260905050516 49 315 1.0 4.0 0.00 0.04 0.02 96 997.2
20260905045537 49 315 2.0 4.0 0.00 0.04 0.02 95 997.0
20260905044516 49 315 2.0 4.0 0.00 0.04 0.02 95 997.0
20260905043516 49 293 2.0 4.0 0.00 0.04 0.02 95 997.0
20260905042536 49 315 2.0 3.0 0.00 0.04 0.02 95 996.9
20260905041516 49 315 1.0 2.0 0.00 0.04 0.02 95 996.9
20260905040516 49 293 1.0 2.0 0.00 0.04 0.02 95 996.8
20260905035536 49 315 1.0 3.0 0.00 0.04 0.02 95 996.8
20260905034516 49 293 1.0 2.0 0.00 0.04 0.02 95 996.7
20260905033516 49 293 1.0 2.0 0.00 0.04 0.02 95 996.7
20260905032516 50 315 1.0 2.0 0.00 0.04 0.02 95 996.7
20260905031516 50 315 1.0 2.0 0.00 0.04 0.02 95 996.6
20260905030516 50 293 2.0 3.0 0.00 0.04 0.02 95 996.6